Flag for Germany Weather past 2 weeks in Geesthacht, Schleswig-Holstein, Germany

Now
55 °F

Sprinkles. Scattered clouds.


Feels Like: 52 °F
Forecast: 47 / 67 °F
Wind: 14 mph from Southwest

Location: Hamburg-Fuhlsbuettel

Current Time: Aug 20, 2014 at 7:45:44 PM

Latest Report: Aug 20, 2014 at 7:20 PM


Visibility: N/A

Pressure: 29.92 "Hg

Humidity: 88%

Dew point: 52 °F

Location of GeesthachtLocation

Historic Weather in Geesthacht — Graph

°F

Geesthacht temperature yesterday

Maximum temperature yesterday: 64 °F (at 2:50 PM)
Minimum temperature yesterday: 50 °F (at 6:20 AM)
Average temperature yesterday: 56 °F

Past Weeks' High & Low Weather Summary

 TemperatureHumidityPressure
High79 °F (Aug 8, 3:20 PM)100% (Aug 6, 2:50 AM)30.07 "Hg (Aug 6, 2:50 AM)
Low50 °F (Aug 19, 6:20 AM)34% (Aug 6, 4:20 PM)29.47 "Hg (Aug 18, 10:20 AM)
Average62 °F75%29.79 "Hg
* Reported Aug 5 6:20 PM — Aug 20 6:50 PM, Geesthacht, Weather by CustomWeather, © 2014

Note: Actual official high and low records may vary slightly from our data, if they occured in-between our weather recording intervals... More about our weather records

Advertising

Geesthacht weather history for previous 24 hours

 ConditionsComfort  
Time TempWeatherWind HumidityBarometerVisibility
6:50 PM
Aug 20
57 °FSprinkles. Passing clouds.12 mph77%29.92 "HgN/A
6:20 PM57 °FSprinkles. Passing clouds.13 mph77%29.92 "HgN/A
5:50 PM57 °FPassing clouds.15 mph77%29.92 "HgN/A
5:20 PM59 °FPassing clouds.12 mph77%29.92 "HgN/A
4:50 PM59 °FScattered clouds.12 mph77%29.92 "HgN/A
4:20 PM57 °FPartly sunny.10 mph82%29.89 "HgN/A
3:50 PM55 °FSprinkles. Partly sunny.10 mph88%29.92 "HgN/A
3:20 PM57 °FScattered clouds.6 mph77%29.89 "HgN/A
2:50 PM54 °FThundershowers. Partly sunny.10 mph88%29.89 "Hg4 mi
2:20 PM59 °FPartly sunny.9 mph82%29.89 "HgN/A
1:50 PM55 °FSprinkles. Scattered clouds.9 mph88%29.89 "HgN/A
1:20 PM55 °FSprinkles. Broken clouds.16 mph82%29.89 "HgN/A
12:50 PM59 °FSprinkles. Scattered clouds.16 mph68%29.89 "HgN/A
12:20 PM59 °FScattered showers. Scattered clouds.17 mph72%29.86 "HgN/A
11:50 AM59 °FScattered clouds.17 mph68%29.86 "HgN/A
11:20 AM59 °FScattered clouds.14 mph72%29.86 "HgN/A
10:50 AM59 °FScattered clouds.16 mph72%29.86 "HgN/A
10:20 AM57 °FScattered clouds.16 mph77%29.83 "HgN/A
9:50 AM57 °FPassing clouds.14 mph82%29.83 "HgN/A
9:20 AM54 °FScattered clouds.15 mph88%29.83 "HgN/A
8:50 AM54 °FScattered clouds.14 mph88%29.83 "HgN/A
8:20 AM52 °FPassing clouds.14 mph94%29.83 "HgN/A
7:50 AM52 °FSprinkles. Scattered clouds.13 mph88%29.83 "HgN/A
7:20 AM50 °FPassing clouds.9 mph94%29.80 "HgN/A
6:50 AM50 °FScattered showers. Passing clouds.14 mph94%29.80 "HgN/A
6:20 AM52 °FPassing clouds.14 mph88%29.80 "HgN/A
5:50 AM52 °FPassing clouds.13 mph88%29.80 "HgN/A
5:20 AM52 °FPassing clouds.13 mph88%29.80 "HgN/A
4:50 AM52 °FPassing clouds.12 mph94%29.77 "HgN/A
4:20 AM52 °FPassing clouds.9 mph94%29.77 "HgN/A
3:50 AM52 °FPassing clouds.12 mph94%29.77 "HgN/A
3:20 AM52 °FPassing clouds.10 mph94%29.77 "HgN/A
2:50 AM52 °FPassing clouds.13 mph94%29.77 "HgN/A
2:20 AM52 °FSprinkles. Passing clouds.12 mph94%29.77 "HgN/A
1:50 AM52 °FSprinkles. Passing clouds.12 mph94%29.77 "HgN/A
1:20 AM52 °FSprinkles. Passing clouds.13 mph94%29.77 "HgN/A
12:50 AM52 °FSprinkles. Passing clouds.14 mph94%29.77 "HgN/A
12:20 AM52 °FPassing clouds.13 mph88%29.77 "HgN/A
11:50 PM
Aug 19
52 °FPassing clouds.12 mph88%29.74 "HgN/A
11:20 PM52 °FPassing clouds.9 mph94%29.74 "HgN/A
10:50 PM52 °FPassing clouds.8 mph94%29.74 "HgN/A
10:20 PM52 °FPassing clouds.7 mph100%29.74 "HgN/A
9:50 PM52 °FSprinkles. Passing clouds.9 mph100%29.74 "HgN/A
9:20 PM52 °FSprinkles. Partly sunny.9 mph94%29.74 "HgN/A
8:50 PM52 °FPartly sunny.6 mph94%29.74 "HgN/A
8:20 PM52 °FBroken clouds.6 mph94%29.74 "HgN/A
7:50 PM54 °FScattered showers. Scattered clouds.6 mph88%29.71 "HgN/A
7:20 PM55 °FRain showers. Partly sunny.12 mph82%29.71 "Hg4 mi
Weather by CustomWeather, © 2014

See weather overviewHow to use our weather pages